| time (UTC) | temp C | wind direction | speed KPH | gust KPH | rain 1hr cm | rain 24hr cm | rain mn cm | humidity % | barometer mb |
| 20260508002254 | 8 | 102 | 4.8 | 6.4 | 0.00 | 0.15 | 0.05 | 85 | 1011.9 |
| 20260508001754 | 8 | 109 | 4.8 | 6.4 | 0.00 | 0.15 | 0.05 | 85 | 1011.9 |
| 20260508001254 | 8 | 109 | 3.2 | 6.4 | 0.00 | 0.15 | 0.05 | 87 | 1011.7 |
| 20260508000754 | 8 | 163 | 4.8 | 6.4 | 0.00 | 0.15 | 0.05 | 88 | 1011.6 |
| 20260508000253 | 8 | 111 | 4.8 | 8.0 | 0.00 | 0.15 | 0.05 | 89 | 1011.5 |
| 20260507235754 | 8 | 113 | 4.8 | 8.0 | 0.00 | 0.15 | 0.05 | 91 | 1011.4 |
| 20260507235254 | 8 | 113 | 4.8 | 8.0 | 0.00 | 0.15 | 0.05 | 91 | 1011.4 |
| 20260507234754 | 8 | 107 | 4.8 | 8.0 | 0.00 | 0.15 | 0.05 | 91 | 1011.3 |
| 20260507234254 | 8 | 110 | 4.8 | 8.0 | 0.00 | 0.15 | 0.05 | 91 | 1011.2 |
| 20260507234239 | 9 | 104 | 4.8 | 8.0 | 0.00 | 0.15 | 0.05 | 91 | 1011.2 |
| 20260507233253 | 9 | 128 | 4.8 | 8.0 | 0.00 | 0.15 | 0.05 | 91 | 1011.2 |
| 20260507233015 | 9 | 160 | 6.4 | 8.0 | 0.00 | 0.15 | 0.05 | 92 | 1011.2 |
| 20260507232255 | 9 | 105 | 6.4 | 6.4 | 0.00 | 0.15 | 0.05 | 91 | 1011.1 |
| 20260507231754 | 9 | 128 | 6.4 | 6.4 | 0.00 | 0.15 | 0.05 | 92 | 1011.0 |
| 20260507231239 | 9 | 125 | 6.4 | 8.0 | 0.00 | 0.15 | 0.05 | 93 | 1011.0 |
| 20260507230739 | 8 | 102 | 6.4 | 8.0 | 0.00 | 0.15 | 0.05 | 95 | 1011.2 |
| 20260507230223 | 8 | 115 | 6.4 | 8.0 | 0.00 | 0.15 | 0.05 | 96 | 1011.2 |
| 20260507225724 | 8 | 122 | 4.8 | 8.0 | 0.00 | 0.15 | 0.05 | 97 | 1011.2 |
| 20260507225224 | 8 | 110 | 6.4 | 8.0 | 0.00 | 0.15 | 0.05 | 98 | 1011.0 |
| 20260507224946 | 8 | 103 | 4.8 | 6.4 | 0.00 | 0.15 | 0.05 | 98 | 1011.0 |
| 20260507224224 | 8 | 124 | 4.8 | 6.4 | 0.00 | 0.15 | 0.05 | 99 | 1011.0 |
| 20260507223724 | 8 | 93 | 4.8 | 6.4 | 0.00 | 0.15 | 0.05 | 99 | 1010.8 |
| 20260507223224 | 8 | 178 | 4.8 | 6.4 | 0.00 | 0.15 | 0.05 | 99 | 1010.8 |
| 20260507222818 | 7 | 94 | 4.8 | 6.4 | 0.00 | 0.15 | 0.05 | 99 | 1010.7 |
| 20260507221724 | 7 | 22 | 4.8 | 6.4 | 0.00 | 0.15 | 0.05 | 99 | 1010.7 |
| 20260507221224 | 7 | 119 | 4.8 | 6.4 | 0.00 | 0.15 | 0.05 | 98 | 1010.7 |
| 20260507220724 | 8 | 120 | 4.8 | 6.4 | 0.00 | 0.15 | 0.05 | 99 | 1010.6 |
| 20260507220706 | 8 | 107 | 4.8 | 6.4 | 0.00 | 0.15 | 0.05 | 99 | 1010.5 |
| 20260507215723 | 8 | 99 | 4.8 | 6.4 | 0.00 | 0.15 | 0.05 | 99 | 1010.5 |
| 20260507215223 | 7 | 106 | 4.8 | 6.4 | 0.00 | 0.15 | 0.05 | 99 | 1010.5 |
| 20260507214933 | 7 | 108 | 4.8 | 6.4 | 0.00 | 0.15 | 0.05 | 99 | 1010.5 |
| 20260507214210 | 7 | 89 | 4.8 | 6.4 | 0.00 | 0.15 | 0.05 | 99 | 1010.5 |
| 20260507214152 | 7 | 128 | 4.8 | 6.4 | 0.00 | 0.15 | 0.05 | 99 | 1010.6 |
| 20260507213210 | 7 | 109 | 4.8 | 6.4 | 0.00 | 0.15 | 0.05 | 99 | 1010.5 |
| 20260507212711 | 7 | 104 | 4.8 | 6.4 | 0.00 | 0.15 | 0.05 | 99 | 1010.5 |
| 20260507212211 | 7 | 87 | 4.8 | 6.4 | 0.00 | 0.15 | 0.05 | 99 | 1010.5 |
| 20260507211711 | 7 | 126 | 4.8 | 6.4 | 0.00 | 0.15 | 0.05 | 99 | 1010.4 |
| 20260507211211 | 7 | 97 | 4.8 | 6.4 | 0.00 | 0.15 | 0.05 | 99 | 1010.4 |
| 20260507210711 | 7 | 107 | 4.8 | 6.4 | 0.00 | 0.15 | 0.05 | 99 | 1010.3 |
| 20260507210211 | 7 | 120 | 4.8 | 6.4 | 0.00 | 0.15 | 0.05 | 98 | 1010.4 |
| 20260507205712 | 7 | 116 | 4.8 | 6.4 | 0.00 | 0.15 | 0.05 | 98 | 1010.4 |
| 20260507205211 | 8 | 104 | 4.8 | 6.4 | 0.00 | 0.15 | 0.05 | 98 | 1010.3 |
| 20260507204700 | 8 | 120 | 4.8 | 8.0 | 0.00 | 0.15 | 0.05 | 97 | 1010.4 |
| 20260507204159 | 8 | 97 | 4.8 | 8.0 | 0.00 | 0.15 | 0.05 | 97 | 1010.4 |
| 20260507203644 | 8 | 156 | 4.8 | 6.4 | 0.00 | 0.15 | 0.05 | 97 | 1010.4 |
| 20260507203616 | 8 | 112 | 4.8 | 8.0 | 0.00 | 0.15 | 0.05 | 97 | 1010.4 |
| 20260507202628 | 8 | 91 | 4.8 | 8.0 | 0.00 | 0.15 | 0.05 | 98 | 1010.5 |
| 20260507202128 | 8 | 111 | 4.8 | 6.4 | 0.00 | 0.15 | 0.05 | 98 | 1010.6 |
| 20260507201628 | 8 | 87 | 4.8 | 6.4 | 0.00 | 0.15 | 0.05 | 98 | 1010.6 |
| 20260507201128 | 8 | 116 | 4.8 | 8.0 | 0.00 | 0.15 | 0.05 | 99 | 1010.6 |
| 20260507200641 | 8 | 98 | 4.8 | 8.0 | 0.00 | 0.15 | 0.05 | 100 | 1010.6 |
| 20260507200128 | 7 | 104 | 4.8 | 8.0 | 0.00 | 0.15 | 0.05 | 100 | 1010.6 |
| 20260507200119 | 7 | 98 | 4.8 | 6.4 | 0.00 | 0.15 | 0.05 | 99 | 1010.6 |
| 20260507195128 | 7 | 101 | 4.8 | 8.0 | 0.00 | 0.15 | 0.05 | 99 | 1010.7 |
| 20260507194628 | 7 | 111 | 4.8 | 8.0 | 0.00 | 0.15 | 0.05 | 99 | 1011.0 |
| 20260507194128 | 7 | 78 | 4.8 | 8.0 | 0.00 | 0.15 | 0.05 | 98 | 1011.2 |
| 20260507193628 | 7 | 98 | 4.8 | 6.4 | 0.00 | 0.15 | 0.05 | 98 | 1011.1 |
| 20260507193128 | 7 | 108 | 4.8 | 6.4 | 0.00 | 0.15 | 0.05 | 99 | 1011.1 |
| 20260507192627 | 7 | 100 | 4.8 | 6.4 | 0.00 | 0.15 | 0.05 | 99 | 1011.1 |
| 20260507192349 | 7 | 106 | 4.8 | 6.4 | 0.00 | 0.15 | 0.05 | 99 | 1011.2 |
| 20260507191629 | 7 | 102 | 4.8 | 6.4 | 0.00 | 0.15 | 0.05 | 98 | 1011.1 |
| 20260507191116 | 7 | 88 | 4.8 | 8.0 | 0.00 | 0.15 | 0.05 | 98 | 1011.2 |
| 20260507190615 | 8 | 120 | 4.8 | 8.0 | 0.00 | 0.15 | 0.05 | 98 | 1011.3 |
| 20260507190116 | 8 | 114 | 4.8 | 8.0 | 0.00 | 0.15 | 0.05 | 97 | 1011.3 |
| 20260507185616 | 8 | 90 | 4.8 | 8.0 | 0.00 | 0.15 | 0.05 | 96 | 1011.4 |
| 20260507185116 | 8 | 77 | 4.8 | 6.4 | 0.00 | 0.15 | 0.05 | 95 | 1011.5 |
| 20260507184615 | 8 | 165 | 4.8 | 6.4 | 0.00 | 0.15 | 0.05 | 94 | 1011.4 |
| 20260507184116 | 8 | 106 | 4.8 | 6.4 | 0.00 | 0.15 | 0.05 | 97 | 1011.3 |
| 20260507183615 | 8 | 90 | 4.8 | 8.0 | 0.00 | 0.15 | 0.05 | 97 | 1011.1 |
| 20260507183116 | 8 | 110 | 4.8 | 8.0 | 0.00 | 0.15 | 0.05 | 97 | 1011.5 |
| 20260507182616 | 8 | 102 | 4.8 | 6.4 | 0.00 | 0.15 | 0.05 | 98 | 1011.5 |
| 20260507182116 | 8 | 135 | 4.8 | 6.4 | 0.00 | 0.15 | 0.05 | 97 | 1011.5 |
| 20260507181615 | 8 | 80 | 4.8 | 6.4 | 0.00 | 0.15 | 0.05 | 97 | 1011.6 |
| 20260507181115 | 8 | 110 | 6.4 | 8.0 | 0.00 | 0.15 | 0.05 | 98 | 1011.6 |
| 20260507180616 | 7 | 108 | 4.8 | 8.0 | 0.00 | 0.15 | 0.05 | 98 | 1011.5 |
| 20260507180129 | 7 | 107 | 4.8 | 6.4 | 0.00 | 0.15 | 0.05 | 98 | 1011.4 |
| 20260507175601 | 7 | 84 | 4.8 | 6.4 | 0.00 | 0.15 | 0.05 | 98 | 1011.7 |
| 20260507175101 | 7 | 96 | 4.8 | 6.4 | 0.00 | 0.15 | 0.05 | 99 | 1011.6 |
| 20260507174601 | 7 | 103 | 4.8 | 6.4 | 0.00 | 0.15 | 0.05 | 99 | 1011.6 |
| 20260507174552 | 7 | 100 | 4.8 | 6.4 | 0.00 | 0.15 | 0.05 | 99 | 1011.6 |
| 20260507173602 | 7 | 104 | 4.8 | 6.4 | 0.00 | 0.15 | 0.05 | 99 | 1011.7 |
| 20260507173101 | 7 | 112 | 4.8 | 6.4 | 0.00 | 0.15 | 0.05 | 99 | 1011.9 |
| 20260507172601 | 7 | 156 | 4.8 | 4.8 | 0.00 | 0.15 | 0.05 | 99 | 1011.9 |
| 20260507172101 | 6 | 90 | 4.8 | 6.4 | 0.00 | 0.15 | 0.05 | 99 | 1011.7 |
| 20260507171828 | 6 | 99 | 4.8 | 6.4 | 0.00 | 0.15 | 0.05 | 99 | 1011.7 |
| 20260507171101 | 6 | 91 | 4.8 | 6.4 | 0.00 | 0.15 | 0.05 | 99 | 1011.9 |
| 20260507170824 | 6 | 102 | 4.8 | 6.4 | 0.00 | 0.15 | 0.05 | 99 | 1011.9 |
| 20260507170114 | 6 | 106 | 4.8 | 6.4 | 0.00 | 0.15 | 0.05 | 99 | 1012.0 |
| 20260507165602 | 6 | 107 | 4.8 | 6.4 | 0.00 | 0.15 | 0.05 | 99 | 1012.1 |
| 20260507165102 | 6 | 100 | 4.8 | 6.4 | 0.00 | 0.15 | 0.05 | 99 | 1012.3 |
| 20260507164816 | 6 | 123 | 4.8 | 6.4 | 0.00 | 0.15 | 0.05 | 99 | 1012.2 |
| 20260507164527 | 6 | 105 | 4.8 | 6.4 | 0.00 | 0.15 | 0.05 | 99 | 1012.3 |
| 20260507163531 | 6 | 155 | 4.8 | 6.4 | 0.00 | 0.15 | 0.05 | 99 | 1012.2 |
| 20260507163031 | 6 | 94 | 4.8 | 6.4 | 0.00 | 0.15 | 0.05 | 99 | 1012.3 |
| 20260507162531 | 6 | 125 | 4.8 | 6.4 | 0.00 | 0.15 | 0.05 | 99 | 1012.4 |
| 20260507162031 | 6 | 87 | 4.8 | 6.4 | 0.00 | 0.15 | 0.05 | 99 | 1012.5 |
| 20260507161751 | 6 | 135 | 4.8 | 6.4 | 0.00 | 0.15 | 0.05 | 99 | 1012.6 |
| 20260507161032 | 6 | 120 | 4.8 | 8.0 | 0.00 | 0.15 | 0.05 | 99 | 1012.6 |
| 20260507161023 | 6 | 75 | 4.8 | 8.0 | 0.03 | 0.15 | 0.05 | 99 | 1012.5 |
| 20260507160031 | 6 | 126 | 3.2 | 6.4 | 0.03 | 0.15 | 0.05 | 99 | 1012.5 |
| 20260507155531 | 6 | 102 | 4.8 | 6.4 | 0.03 | 0.15 | 0.05 | 99 | 1012.5 |
| 20260507155306 | 6 | 103 | 4.8 | 4.8 | 0.00 | 0.15 | 0.03 | 99 | 1012.6 |
| 20260507154532 | 6 | 123 | 4.8 | 6.4 | 0.00 | 0.15 | 0.03 | 99 | 1012.9 |
| 20260507154032 | 6 | 171 | 4.8 | 6.4 | 0.00 | 0.15 | 0.03 | 99 | 1012.9 |
| 20260507153531 | 6 | 118 | 4.8 | 6.4 | 0.00 | 0.15 | 0.03 | 99 | 1012.7 |
| 20260507153018 | 6 | 128 | 4.8 | 6.4 | 0.00 | 0.15 | 0.03 | 99 | 1012.7 |
| 20260507152957 | 6 | 118 | 4.8 | 6.4 | 0.00 | 0.15 | 0.03 | 99 | 1013.0 |
| 20260507152004 | 6 | 110 | 4.8 | 6.4 | 0.00 | 0.15 | 0.03 | 99 | 1012.9 |
| 20260507151503 | 6 | 124 | 3.2 | 6.4 | 0.00 | 0.15 | 0.03 | 99 | 1012.7 |
| 20260507151003 | 6 | 113 | 3.2 | 4.8 | 0.00 | 0.15 | 0.03 | 99 | 1012.9 |
| 20260507150504 | 6 | 134 | 3.2 | 6.4 | 0.00 | 0.13 | 0.03 | 99 | 1013.1 |
| 20260507150003 | 6 | 138 | 3.2 | 6.4 | 0.00 | 0.13 | 0.03 | 99 | 1012.9 |
| 20260507145731 | 5 | 114 | 4.8 | 6.4 | 0.00 | 0.13 | 0.03 | 99 | 1012.9 |
| 20260507145004 | 6 | 123 | 3.2 | 6.4 | 0.00 | 0.13 | 0.03 | 99 | 1012.7 |
| 20260507144503 | 6 | 117 | 3.2 | 6.4 | 0.00 | 0.13 | 0.03 | 99 | 1012.7 |
| 20260507144004 | 6 | 136 | 3.2 | 6.4 | 0.00 | 0.13 | 0.03 | 99 | 1012.7 |
| 20260507143503 | 6 | 129 | 3.2 | 6.4 | 0.00 | 0.13 | 0.03 | 99 | 1012.7 |
| 20260507143003 | 6 | 169 | 4.8 | 8.0 | 0.00 | 0.13 | 0.03 | 99 | 1012.9 |
| 20260507142504 | 6 | 116 | 4.8 | 8.0 | 0.00 | 0.13 | 0.03 | 99 | 1012.9 |
| 20260507142004 | 6 | 113 | 4.8 | 6.4 | 0.00 | 0.13 | 0.03 | 99 | 1013.1 |
| 20260507141936 | 6 | 137 | 4.8 | 6.4 | 0.00 | 0.13 | 0.03 | 99 | 1013.2 |
| 20260507140949 | 6 | 109 | 3.2 | 6.4 | 0.00 | 0.13 | 0.03 | 99 | 1013.2 |
| 20260507140657 | 6 | 125 | 4.8 | 6.4 | 0.00 | 0.15 | 0.03 | 99 | 1013.4 |
| 20260507135933 | 6 | 125 | 4.8 | 6.4 | 0.00 | 0.15 | 0.03 | 99 | 1013.3 |
| 20260507135433 | 6 | 103 | 4.8 | 6.4 | 0.00 | 0.15 | 0.03 | 99 | 1013.4 |
| 20260507134933 | 6 | 136 | 3.2 | 6.4 | 0.00 | 0.15 | 0.03 | 99 | 1013.3 |
| 20260507134650 | 6 | 101 | 3.2 | 6.4 | 0.00 | 0.15 | 0.03 | 99 | 1013.5 |
| 20260507133934 | 6 | 108 | 4.8 | 6.4 | 0.00 | 0.18 | 0.03 | 99 | 1013.4 |
| 20260507133918 | 6 | 91 | 4.8 | 6.4 | 0.00 | 0.18 | 0.03 | 99 | 1013.5 |
| 20260507132934 | 6 | 144 | 3.2 | 4.8 | 0.00 | 0.18 | 0.03 | 99 | 1013.4 |
| 20260507132913 | 6 | 118 | 3.2 | 4.8 | 0.00 | 0.18 | 0.03 | 99 | 1013.5 |
| 20260507131933 | 6 | 122 | 3.2 | 6.4 | 0.00 | 0.20 | 0.03 | 99 | 1013.5 |
| 20260507131433 | 6 | 131 | 4.8 | 6.4 | 0.00 | 0.20 | 0.03 | 99 | 1013.5 |
| 20260507130934 | 6 | 98 | 4.8 | 6.4 | 0.00 | 0.20 | 0.03 | 99 | 1013.5 |
| 20260507130434 | 6 | 156 | 4.8 | 6.4 | 0.00 | 0.20 | 0.03 | 99 | 1013.4 |
| 20260507130413 | 6 | 111 | 3.2 | 6.4 | 0.00 | 0.20 | 0.03 | 99 | 1013.4 |
| 20260507125434 | 6 | 162 | 4.8 | 6.4 | 0.00 | 0.20 | 0.03 | 99 | 1013.4 |
| 20260507124920 | 6 | 112 | 4.8 | 6.4 | 0.00 | 0.23 | 0.03 | 99 | 1013.5 |
| 20260507124641 | 6 | 103 | 3.2 | 4.8 | 0.00 | 0.28 | 0.03 | 99 | 1013.5 |
| 20260507123920 | 6 | 126 | 4.8 | 6.4 | 0.00 | 0.28 | 0.03 | 99 | 1013.5 |
| 20260507123420 | 6 | 101 | 4.8 | 6.4 | 0.00 | 0.28 | 0.03 | 99 | 1013.5 |
| 20260507122920 | 6 | 120 | 4.8 | 6.4 | 0.00 | 0.30 | 0.03 | 99 | 1013.3 |
| 20260507122909 | 6 | 111 | 4.8 | 6.4 | 0.00 | 0.30 | 0.03 | 99 | 1013.2 |
| 20260507121920 | 7 | 97 | 4.8 | 6.4 | 0.00 | 0.30 | 0.03 | 99 | 1013.2 |
| 20260507121420 | 7 | 115 | 4.8 | 6.4 | 0.00 | 0.33 | 0.03 | 99 | 1013.3 |
| 20260507121404 | 7 | 105 | 4.8 | 6.4 | 0.00 | 0.33 | 0.03 | 99 | 1013.5 |
| 20260507120420 | 7 | 107 | 4.8 | 8.0 | 0.00 | 0.33 | 0.03 | 99 | 1013.5 |
| 20260507115920 | 7 | 110 | 4.8 | 8.0 | 0.00 | 0.33 | 0.03 | 98 | 1013.3 |
| 20260507115421 | 7 | 154 | 4.8 | 6.4 | 0.00 | 0.36 | 0.03 | 98 | 1013.2 |
| 20260507115241 | 7 | 107 | 4.8 | 6.4 | 0.00 | 0.38 | 0.03 | 98 | 1013.2 |
| 20260507113906 | 7 | 115 | 4.8 | 6.4 | 0.00 | 0.38 | 0.03 | 98 | 1013.3 |
| 20260507113624 | 7 | 119 | 4.8 | 6.4 | 0.00 | 0.38 | 0.03 | 98 | 1013.3 |
| 20260507112851 | 8 | 97 | 4.8 | 4.8 | 0.00 | 0.38 | 0.03 | 97 | 1013.3 |
| 20260507112351 | 8 | 103 | 4.8 | 4.8 | 0.00 | 0.38 | 0.03 | 97 | 1013.3 |
| 20260507112213 | 8 | 93 | 4.8 | 6.4 | 0.00 | 0.38 | 0.03 | 97 | 1013.1 |
| 20260507110950 | 9 | 105 | 4.8 | 6.4 | 0.00 | 0.38 | 0.03 | 96 | 1013.2 |
| 20260507105852 | 10 | 109 | 6.4 | 6.4 | 0.00 | 0.38 | 0.03 | 97 | 1013.1 |
| 20260507105352 | 10 | 109 | 4.8 | 6.4 | 0.00 | 0.38 | 0.03 | 97 | 1013.1 |
| 20260507104851 | 10 | 109 | 4.8 | 6.4 | 0.00 | 0.38 | 0.03 | 97 | 1013.0 |
| 20260507104352 | 10 | 115 | 6.4 | 6.4 | 0.00 | 0.38 | 0.03 | 97 | 1013.0 |
| 20260507103851 | 10 | 102 | 4.8 | 6.4 | 0.00 | 0.38 | 0.03 | 96 | 1012.9 |
| 20260507103614 | 10 | 104 | 6.4 | 6.4 | 0.00 | 0.38 | 0.03 | 96 | 1012.7 |
| 20260507102851 | 10 | 103 | 6.4 | 6.4 | 0.00 | 0.38 | 0.03 | 97 | 1013.0 |
| 20260507102353 | 10 | 110 | 6.4 | 6.4 | 0.00 | 0.38 | 0.03 | 96 | 1012.9 |
| 20260507101852 | 10 | 96 | 6.4 | 6.4 | 0.00 | 0.38 | 0.03 | 96 | 1013.0 |
| 20260507101701 | 10 | 97 | 6.4 | 6.4 | 0.00 | 0.38 | 0.03 | 96 | 1013.3 |
| 20260507100336 | 10 | 113 | 6.4 | 6.4 | 0.00 | 0.38 | 0.03 | 96 | 1013.0 |
| 20260507095836 | 10 | 112 | 4.8 | 6.4 | 0.00 | 0.38 | 0.03 | 96 | 1013.2 |
| 20260507095336 | 10 | 109 | 4.8 | 6.4 | 0.00 | 0.38 | 0.03 | 96 | 1012.9 |
| 20260507094836 | 10 | 118 | 4.8 | 8.0 | 0.00 | 0.38 | 0.03 | 96 | 1013.1 |
| 20260507094559 | 10 | 109 | 6.4 | 8.0 | 0.00 | 0.38 | 0.03 | 96 | 1013.2 |
| 20260507093836 | 10 | 99 | 6.4 | 8.0 | 0.00 | 0.38 | 0.03 | 96 | 1013.2 |
| 20260507093659 | 10 | 112 | 6.4 | 6.4 | 0.00 | 0.38 | 0.03 | 96 | 1013.0 |
| 20260507092337 | 10 | 107 | 6.4 | 6.4 | 0.00 | 0.38 | 0.03 | 96 | 1012.7 |
| 20260507091836 | 10 | 99 | 6.4 | 6.4 | 0.00 | 0.38 | 0.03 | 96 | 1012.9 |
| 20260507091349 | 10 | 110 | 4.8 | 6.4 | 0.00 | 0.38 | 0.03 | 96 | 1013.0 |
| 20260507090823 | 10 | 125 | 4.8 | 6.4 | 0.00 | 0.38 | 0.03 | 96 | 1013.2 |
| 20260507090323 | 10 | 111 | 4.8 | 6.4 | 0.00 | 0.38 | 0.03 | 95 | 1013.3 |
| 20260507085809 | 10 | 104 | 4.8 | 6.4 | 0.00 | 0.38 | 0.03 | 95 | 1013.2 |
| 20260507085308 | 10 | 108 | 4.8 | 6.4 | 0.00 | 0.38 | 0.03 | 95 | 1013.2 |
| 20260507084808 | 10 | 99 | 4.8 | 6.4 | 0.00 | 0.38 | 0.03 | 94 | 1013.3 |
| 20260507084309 | 10 | 164 | 4.8 | 6.4 | 0.00 | 0.38 | 0.03 | 94 | 1013.1 |
| 20260507083809 | 10 | 111 | 4.8 | 6.4 | 0.00 | 0.38 | 0.03 | 93 | 1013.0 |
| 20260507083309 | 10 | 122 | 4.8 | 6.4 | 0.00 | 0.38 | 0.03 | 93 | 1012.9 |
| 20260507082809 | 10 | 114 | 4.8 | 6.4 | 0.00 | 0.38 | 0.03 | 93 | 1012.7 |
| 20260507082308 | 10 | 123 | 4.8 | 6.4 | 0.00 | 0.38 | 0.03 | 94 | 1013.0 |
| 20260507081809 | 10 | 112 | 4.8 | 8.0 | 0.00 | 0.38 | 0.03 | 94 | 1013.1 |
| 20260507081309 | 11 | 137 | 4.8 | 8.0 | 0.00 | 0.38 | 0.03 | 93 | 1013.0 |
| 20260507080808 | 11 | 121 | 4.8 | 8.0 | 0.00 | 0.38 | 0.03 | 93 | 1012.9 |
| 20260507080309 | 11 | 163 | 4.8 | 8.0 | 0.00 | 0.38 | 0.03 | 93 | 1013.0 |
| 20260507075756 | 11 | 147 | 4.8 | 8.0 | 0.00 | 0.38 | 0.03 | 93 | 1013.1 |
| 20260507075254 | 11 | 103 | 4.8 | 8.0 | 0.00 | 0.38 | 0.03 | 93 | 1012.7 |
| 20260507074754 | 11 | 121 | 4.8 | 8.0 | 0.00 | 0.38 | 0.03 | 93 | 1012.9 |
| 20260507074254 | 11 | 121 | 4.8 | 6.4 | 0.00 | 0.38 | 0.03 | 93 | 1012.9 |
| 20260507073738 | 11 | 109 | 4.8 | 6.4 | 0.00 | 0.38 | 0.03 | 93 | 1012.7 |
| 20260507073727 | 11 | 131 | 4.8 | 6.4 | 0.00 | 0.38 | 0.03 | 92 | 1012.9 |
| 20260507072738 | 11 | 126 | 4.8 | 6.4 | 0.00 | 0.38 | 0.03 | 92 | 1013.2 |
| 20260507072239 | 11 | 134 | 4.8 | 6.4 | 0.00 | 0.38 | 0.03 | 91 | 1013.1 |
| 20260507072221 | 11 | 139 | 4.8 | 6.4 | 0.00 | 0.38 | 0.03 | 92 | 1013.0 |
| 20260507071238 | 11 | 134 | 4.8 | 6.4 | 0.00 | 0.38 | 0.03 | 92 | 1012.9 |
| 20260507071000 | 11 | 124 | 4.8 | 8.0 | 0.00 | 0.38 | 0.03 | 92 | 1012.7 |
| 20260507070239 | 11 | 130 | 4.8 | 8.0 | 0.00 | 0.38 | 0.03 | 92 | 1013.0 |
| 20260507065738 | 11 | 126 | 4.8 | 6.4 | 0.00 | 0.38 | 0.03 | 93 | 1012.7 |
| 20260507065239 | 11 | 118 | 4.8 | 6.4 | 0.00 | 0.38 | 0.03 | 93 | 1012.7 |
| 20260507064739 | 11 | 171 | 4.8 | 8.0 | 0.00 | 0.38 | 0.03 | 94 | 1012.7 |
| 20260507064457 | 11 | 163 | 4.8 | 8.0 | 0.00 | 0.38 | 0.03 | 94 | 1013.0 |
| 20260507063739 | 11 | 130 | 4.8 | 8.0 | 0.00 | 0.38 | 0.03 | 95 | 1013.0 |
| 20260507063238 | 11 | 143 | 4.8 | 6.4 | 0.00 | 0.38 | 0.03 | 96 | 1012.9 |
| 20260507062738 | 11 | 175 | 3.2 | 6.4 | 0.00 | 0.38 | 0.03 | 96 | 1013.1 |
| 20260507062239 | 11 | 124 | 4.8 | 6.4 | 0.00 | 0.38 | 0.03 | 96 | 1013.2 |
| 20260507061739 | 12 | 16 | 4.8 | 8.0 | 0.00 | 0.38 | 0.03 | 97 | 1013.6 |
| 20260507061238 | 12 | 91 | 4.8 | 8.0 | 0.00 | 0.38 | 0.03 | 97 | 1013.4 |
| 20260507061005 | 12 | 166 | 4.8 | 8.0 | 0.00 | 0.38 | 0.03 | 97 | 1013.6 |
| 20260507060241 | 12 | 98 | 4.8 | 8.0 | 0.00 | 0.38 | 0.03 | 98 | 1013.8 |
| 20260507055725 | 12 | 146 | 4.8 | 8.0 | 0.00 | 0.38 | 0.03 | 97 | 1013.6 |
| 20260507055226 | 12 | 173 | 4.8 | 6.4 | 0.00 | 0.38 | 0.03 | 97 | 1013.8 |
| 20260507054819 | 12 | 131 | 3.2 | 6.4 | 0.00 | 0.38 | 0.03 | 97 | 1013.6 |
| 20260507053945 | 12 | 125 | 4.8 | 6.4 | 0.00 | 0.38 | 0.03 | 96 | 1013.6 |
| 20260507053226 | 12 | 146 | 4.8 | 6.4 | 0.00 | 0.38 | 0.03 | 96 | 1013.8 |
| 20260507052726 | 12 | 117 | 3.2 | 6.4 | 0.00 | 0.38 | 0.03 | 95 | 1013.8 |
| 20260507052225 | 12 | 121 | 3.2 | 6.4 | 0.00 | 0.38 | 0.03 | 94 | 1013.4 |
| 20260507051738 | 12 | 120 | 3.2 | 4.8 | 0.00 | 0.38 | 0.03 | 93 | 1013.3 |
| 20260507051226 | 12 | 97 | 3.2 | 6.4 | 0.03 | 0.38 | 0.03 | 93 | 1013.1 |
| 20260507050747 | 12 | 130 | 4.8 | 11.3 | 0.03 | 0.38 | 0.03 | 94 | 1012.6 |
| 20260507045656 | 12 | 139 | 4.8 | 6.4 | 0.03 | 0.38 | 0.03 | 94 | 1012.6 |
| 20260507045156 | 12 | 99 | 4.8 | 6.4 | 0.03 | 0.38 | 0.03 | 94 | 1012.5 |
| 20260507044656 | 13 | 109 | 4.8 | 8.0 | 0.03 | 0.38 | 0.03 | 94 | 1012.7 |
| 20260507044156 | 13 | 178 | 4.8 | 8.0 | 0.03 | 0.38 | 0.03 | 93 | 1012.9 |
| 20260507043646 | 13 | 89 | 4.8 | 9.7 | 0.00 | 0.36 | 0.00 | 93 | 1012.7 |
| 20260507043146 | 13 | 177 | 4.8 | 9.7 | 0.00 | 0.36 | 0.00 | 92 | 1013.3 |
| 20260507042646 | 13 | 102 | 4.8 | 14.5 | 0.03 | 0.36 | 0.00 | 92 | 1013.3 |
| 20260507042147 | 13 | 143 | 4.8 | 14.5 | 0.05 | 0.36 | 0.00 | 92 | 1013.4 |
| 20260507041647 | 13 | 121 | 4.8 | 9.7 | 0.05 | 0.36 | 0.00 | 91 | 1013.3 |
| 20260507041147 | 13 | 164 | 4.8 | 9.7 | 0.05 | 0.36 | 0.00 | 91 | 1013.6 |
| 20260507040646 | 13 | 155 | 4.8 | 9.7 | 0.08 | 0.36 | 0.00 | 91 | 1013.6 |
| 20260507040159 | 13 | 101 | 4.8 | 8.0 | 0.08 | 0.36 | 0.00 | 92 | 1013.6 |
| 20260507035640 | 13 | 138 | 4.8 | 8.0 | 0.10 | 0.36 | 0.36 | 92 | 1013.5 |
| 20260507035141 | 13 | 120 | 4.8 | 8.0 | 0.10 | 0.36 | 0.36 | 92 | 1013.6 |
| 20260507034640 | 13 | 164 | 6.4 | 11.3 | 0.10 | 0.36 | 0.36 | 92 | 1013.5 |
| 20260507034618 | 13 | 112 | 6.4 | 14.5 | 0.10 | 0.36 | 0.36 | 92 | 1013.5 |
| 20260507033640 | 13 | 111 | 6.4 | 14.5 | 0.10 | 0.36 | 0.36 | 93 | 1013.9 |
| 20260507033140 | 13 | 216 | 6.4 | 11.3 | 0.10 | 0.33 | 0.33 | 93 | 1013.9 |
| 20260507032640 | 13 | 68 | 4.8 | 9.7 | 0.10 | 0.33 | 0.33 | 92 | 1014.1 |
| 20260507032141 | 13 | 150 | 4.8 | 9.7 | 0.08 | 0.30 | 0.30 | 95 | 1014.4 |
| 20260507031635 | 13 | 117 | 4.8 | 9.7 | 0.05 | 0.30 | 0.30 | 96 | 1014.5 |
| 20260507031135 | 13 | 150 | 4.8 | 9.7 | 0.05 | 0.28 | 0.28 | 95 | 1014.4 |
| 20260507030635 | 13 | 148 | 4.8 | 9.7 | 0.05 | 0.28 | 0.28 | 95 | 1014.2 |
| 20260507030135 | 14 | 165 | 6.4 | 11.3 | 0.03 | 0.28 | 0.28 | 94 | 1014.1 |
| 20260507025635 | 14 | 71 | 6.4 | 12.9 | 0.00 | 0.23 | 0.23 | 94 | 1013.9 |
| 20260507025135 | 13 | 125 | 6.4 | 12.9 | 0.00 | 0.23 | 0.23 | 94 | 1013.6 |
| 20260507024635 | 13 | 97 | 6.4 | 11.3 | 0.00 | 0.23 | 0.23 | 93 | 1014.1 |
| 20260507024135 | 13 | 67 | 6.4 | 11.3 | 0.00 | 0.23 | 0.23 | 94 | 1014.0 |
| 20260507023636 | 13 | 50 | 6.4 | 9.7 | 0.00 | 0.23 | 0.23 | 94 | 1013.8 |
| 20260507023135 | 13 | 85 | 6.4 | 9.7 | 0.00 | 0.23 | 0.23 | 94 | 1013.8 |
| 20260507022635 | 13 | 88 | 6.4 | 9.7 | 0.00 | 0.23 | 0.23 | 95 | 1013.8 |
| 20260507022148 | 13 | 111 | 6.4 | 11.3 | 0.00 | 0.23 | 0.23 | 95 | 1013.8 |
| 20260507021636 | 13 | 80 | 6.4 | 11.3 | 0.00 | 0.23 | 0.23 | 96 | 1013.9 |
| 20260507021135 | 13 | 85 | 6.4 | 9.7 | 0.00 | 0.23 | 0.23 | 95 | 1013.3 |
| 20260507020636 | 13 | 106 | 6.4 | 9.7 | 0.00 | 0.23 | 0.23 | 96 | 1013.3 |
| 20260507020149 | 13 | 119 | 6.4 | 8.0 | 0.00 | 0.23 | 0.23 | 95 | 1013.3 |
| 20260507015631 | 13 | 59 | 6.4 | 8.0 | 0.00 | 0.23 | 0.23 | 94 | 1013.3 |
| 20260507015128 | 13 | 78 | 6.4 | 8.0 | 0.00 | 0.23 | 0.23 | 94 | 1013.2 |
| 20260507014613 | 13 | 88 | 6.4 | 8.0 | 0.00 | 0.23 | 0.23 | 93 | 1013.2 |
| 20260507014126 | 13 | 88 | 6.4 | 8.0 | 0.00 | 0.23 | 0.23 | 93 | 1013.2 |
| 20260507013613 | 13 | 89 | 6.4 | 8.0 | 0.00 | 0.23 | 0.23 | 93 | 1013.5 |
| 20260507013113 | 14 | 86 | 6.4 | 8.0 | 0.00 | 0.23 | 0.23 | 93 | 1013.6 |
| 20260507012613 | 14 | 87 | 6.4 | 8.0 | 0.00 | 0.23 | 0.23 | 93 | 1013.8 |
| 20260507012550 | 14 | 160 | 6.4 | 9.7 | 0.00 | 0.23 | 0.23 | 92 | 1013.9 |
| 20260507011612 | 14 | 96 | 6.4 | 9.7 | 0.00 | 0.23 | 0.23 | 92 | 1013.9 |
| 20260507011340 | 14 | 88 | 6.4 | 8.0 | 0.00 | 0.23 | 0.23 | 92 | 1013.8 |
| 20260507010707 | 14 | 89 | 6.4 | 8.0 | 0.00 | 0.23 | 0.23 | 92 | 1013.8 |
| 20260507005614 | 14 | 85 | 6.4 | 8.0 | 0.00 | 0.23 | 0.23 | 92 | 1013.9 |
| 20260507005606 | 14 | 116 | 6.4 | 8.0 | 0.00 | 0.23 | 0.23 | 92 | 1013.8 |
| 20260507004613 | 14 | 88 | 4.8 | 8.0 | 0.00 | 0.23 | 0.23 | 92 | 1013.9 |
| 20260507004101 | 14 | 73 | 4.8 | 8.0 | 0.00 | 0.23 | 0.23 | 92 | 1014.0 |
| 20260507003601 | 14 | 74 | 6.4 | 8.0 | 0.00 | 0.23 | 0.23 | 93 | 1014.0 |
| 20260507003059 | 14 | 86 | 6.4 | 8.0 | 0.00 | 0.23 | 0.23 | 93 | 1013.9 |
| 20260507002811 | 14 | 86 | 6.4 | 9.7 | 0.00 | 0.23 | 0.23 | 94 | 1013.8 |